Starlink 33883

operational
NORAD ID: 63781 Int'l Des: 2025-091 Owner: SPXS Country: US Constellation: starlink
LEOCIRCULAR

Starlink 33883について

説明を読み込み中...

リアルタイム位置

3D地球を読み込み中...

次回通過

高度履歴

Altitude vs Time

uPlot chart will show altitude changes over time

軌道要素

1 63781U 25091G 25259.19820109 .00030241 00000-0 11033-2 0 9995
2 63781 42.9979 318.1680 0000784 292.3942 67.6826 15.27600510 22213
Epoch: Sep 16, 2025 • Age: 7 hours

現在のステータス

高度 483.1 km
速度 7.63 km/s
衛星直下点 23.29°N, 61.42°W
打ち上げ日 May 2, 2025
運用期間 0.3 years
タイプ internet

技術仕様

分類 Payload
質量 575.00 kg
乾燥質量 530.00 kg
総質量 575.00 kg
長さ 0.30 m
直径 4.10 m
スパン 29.00 m
形状 Box + pan
製造者 SPXS
バスタイプ Starlink V2MO
フェーズステータス In Orbit
所有者/国 SPXS/US

大規模コンステレーション

Loading constellations...